| time (UTC) | temp C | wind direction | speed KPH | gust KPH | rain 1hr cm | rain 24hr cm | rain mn cm | humidity % | barometer mb |
| 20260906150007 | 20 | 299 | 6.4 | 12.9 | 0.00 | 0.00 | 0.00 | 55 | 1020.8 |
| 20260906150005 | 20 | 299 | 4.8 | 12.9 | 0.00 | 0.00 | 0.00 | 55 | 1003.6 |
| 20260906145006 | 20 | 309 | 4.8 | 11.3 | 0.00 | 0.00 | 0.00 | 55 | 1020.9 |
| 20260906144505 | 20 | 311 | 6.4 | 14.5 | 0.00 | 0.00 | 0.00 | 56 | 1020.9 |
| 20260906144503 | 20 | 311 | 4.8 | 14.5 | 0.00 | 0.00 | 0.00 | 56 | 1003.7 |
| 20260906144005 | 20 | 300 | 8.0 | 14.5 | 0.00 | 0.00 | 0.00 | 56 | 1020.9 |
| 20260906143505 | 19 | 299 | 4.8 | 16.1 | 0.00 | 0.00 | 0.00 | 57 | 1020.8 |
| 20260906143007 | 19 | 275 | 8.0 | 14.5 | 0.00 | 0.00 | 0.00 | 57 | 1020.7 |
| 20260906142505 | 19 | 309 | 4.8 | 8.0 | 0.00 | 0.00 | 0.00 | 57 | 1020.7 |
| 20260906141505 | 18 | 300 | 3.2 | 6.4 | 0.00 | 0.00 | 0.00 | 59 | 1020.8 |
| 20260906141503 | 18 | 300 | 1.6 | 6.4 | 0.00 | 0.00 | 0.00 | 59 | 1003.7 |
| 20260906141005 | 18 | 300 | 3.2 | 6.4 | 0.00 | 0.00 | 0.00 | 60 | 1020.8 |
| 20260906140007 | 17 | 281 | 3.2 | 8.0 | 0.00 | 0.00 | 0.00 | 60 | 1020.7 |
| 20260906140004 | 17 | 281 | 1.6 | 8.0 | 0.00 | 0.00 | 0.00 | 60 | 1003.5 |
| 20260906135504 | 17 | 249 | 3.2 | 8.0 | 0.00 | 0.00 | 0.00 | 62 | 1020.5 |
| 20260906135005 | 17 | 249 | 3.2 | 8.0 | 0.00 | 0.00 | 0.00 | 63 | 1020.5 |
| 20260906134504 | 17 | 249 | 4.8 | 8.0 | 0.00 | 0.00 | 0.00 | 63 | 1003.4 |
| 20260906133005 | 16 | 249 | 4.8 | 8.0 | 0.00 | 0.00 | 0.00 | 63 | 1020.4 |
| 20260906132006 | 15 | 234 | 4.8 | 11.3 | 0.00 | 0.00 | 0.00 | 64 | 1020.3 |
| 20260906131509 | 15 | 262 | 4.8 | 11.3 | 0.00 | 0.00 | 0.00 | 65 | 1003.3 |
| 20260906131005 | 15 | 234 | 3.2 | 6.4 | 0.00 | 0.00 | 0.00 | 66 | 1020.2 |
| 20260906130504 | 15 | 204 | 4.8 | 6.4 | 0.00 | 0.00 | 0.00 | 66 | 1020.2 |
| 20260906130006 | 15 | 204 | 3.2 | 4.8 | 0.00 | 0.00 | 0.00 | 67 | 1020.2 |
| 20260906130004 | 15 | 204 | 1.6 | 4.8 | 0.00 | 0.00 | 0.00 | 67 | 1003.1 |
| 20260906125505 | 14 | 204 | 3.2 | 6.4 | 0.00 | 0.00 | 0.00 | 68 | 1020.3 |
| 20260906125005 | 14 | 204 | 3.2 | 6.4 | 0.00 | 0.00 | 0.00 | 68 | 1020.3 |
| 20260906124506 | 13 | 204 | 1.6 | 3.2 | 0.00 | 0.00 | 0.00 | 69 | 1020.3 |
| 20260906124504 | 13 | 204 | 1.6 | 3.2 | 0.00 | 0.00 | 0.00 | 69 | 1003.2 |
| 20260906124006 | 13 | 204 | 1.6 | 4.8 | 0.00 | 0.00 | 0.00 | 70 | 1020.3 |
| 20260906123504 | 13 | 204 | 1.6 | 6.4 | 0.00 | 0.00 | 0.00 | 70 | 1020.2 |
| 20260906123005 | 13 | 204 | 3.2 | 6.4 | 0.00 | 0.00 | 0.00 | 70 | 1003.0 |
| 20260906122005 | 14 | 204 | 1.6 | 3.2 | 0.00 | 0.00 | 0.00 | 67 | 1020.1 |
| 20260906121506 | 15 | 204 | 3.2 | 4.8 | 0.00 | 0.00 | 0.00 | 66 | 1020.1 |
| 20260906121504 | 15 | 204 | 1.6 | 4.8 | 0.00 | 0.00 | 0.00 | 66 | 1003.0 |
| 20260906121005 | 15 | 204 | 3.2 | 4.8 | 0.00 | 0.00 | 0.00 | 65 | 1020.2 |
| 20260906120505 | 15 | 204 | 3.2 | 4.8 | 0.00 | 0.00 | 0.00 | 64 | 1020.1 |
| 20260906120006 | 15 | 204 | 3.2 | 4.8 | 0.00 | 0.00 | 0.00 | 65 | 1020.1 |
| 20260906120004 | 15 | 204 | 3.2 | 4.8 | 0.00 | 0.00 | 0.00 | 65 | 1002.9 |
| 20260906115505 | 15 | 204 | 0.0 | 3.2 | 0.00 | 0.00 | 0.00 | 64 | 1020.1 |
| 20260906114506 | 15 | 204 | 1.6 | 3.2 | 0.00 | 0.00 | 0.00 | 64 | 1002.5 |
| 20260906114005 | 15 | 204 | 1.6 | 3.2 | 0.00 | 0.00 | 0.00 | 64 | 1019.8 |
| 20260906113504 | 15 | 204 | 0.0 | 3.2 | 0.00 | 0.00 | 0.00 | 64 | 1019.9 |
| 20260906113006 | 15 | 204 | 1.6 | 3.2 | 0.00 | 0.00 | 0.00 | 64 | 1002.6 |
| 20260906112504 | 15 | 204 | 1.6 | 4.8 | 0.00 | 0.00 | 0.00 | 65 | 1019.9 |
| 20260906112006 | 15 | 204 | 1.6 | 4.8 | 0.00 | 0.00 | 0.00 | 66 | 1019.9 |
| 20260906111504 | 14 | 204 | 3.2 | 4.8 | 0.00 | 0.00 | 0.00 | 67 | 1019.8 |
| 20260906111502 | 14 | 204 | 1.6 | 4.8 | 0.00 | 0.00 | 0.00 | 67 | 1002.5 |
| 20260906111006 | 14 | 204 | 3.2 | 4.8 | 0.00 | 0.00 | 0.00 | 69 | 1019.7 |
| 20260906110505 | 13 | 204 | 1.6 | 4.8 | 0.00 | 0.00 | 0.00 | 71 | 1019.7 |
| 20260906110007 | 13 | 204 | 1.6 | 8.0 | 0.00 | 0.00 | 0.00 | 72 | 1019.7 |
| 20260906110004 | 13 | 204 | 1.6 | 8.0 | 0.00 | 0.00 | 0.00 | 72 | 1002.5 |
| 20260906105005 | 14 | 204 | 3.2 | 9.7 | 0.00 | 0.00 | 0.00 | 71 | 1019.6 |
| 20260906104505 | 14 | 204 | 4.8 | 8.0 | 0.00 | 0.00 | 0.00 | 71 | 1019.6 |
| 20260906104503 | 14 | 204 | 4.8 | 8.0 | 0.00 | 0.00 | 0.00 | 71 | 1002.3 |
| 20260906104005 | 15 | 204 | 3.2 | 6.4 | 0.00 | 0.00 | 0.00 | 69 | 1019.7 |
| 20260906103006 | 15 | 204 | 4.8 | 6.4 | 0.00 | 0.00 | 0.00 | 69 | 1019.6 |
| 20260906103004 | 15 | 204 | 4.8 | 6.4 | 0.00 | 0.00 | 0.00 | 69 | 1002.3 |
| 20260906102006 | 15 | 204 | 0.0 | 6.4 | 0.00 | 0.00 | 0.00 | 71 | 1019.7 |
| 20260906101558 | 15 | 204 | 1.6 | 8.0 | 0.00 | 0.00 | 0.00 | 72 | 1002.4 |
| 20260906101505 | 15 | 204 | 1.6 | 8.0 | 0.00 | 0.00 | 0.00 | 72 | 1019.7 |
| 20260906101006 | 15 | 204 | 6.4 | 8.0 | 0.00 | 0.00 | 0.00 | 74 | 1019.7 |
| 20260906100505 | 15 | 204 | 4.8 | 6.4 | 0.00 | 0.00 | 0.00 | 74 | 1019.7 |
| 20260906100004 | 15 | 204 | 4.8 | 9.7 | 0.00 | 0.00 | 0.00 | 74 | 1002.5 |
| 20260906095006 | 15 | 208 | 4.8 | 8.0 | 0.00 | 0.00 | 0.00 | 74 | 1019.9 |
| 20260906094511 | 15 | 238 | 3.2 | 8.0 | 0.00 | 0.00 | 0.00 | 74 | 1002.4 |
| 20260906094504 | 15 | 238 | 4.8 | 8.0 | 0.00 | 0.00 | 0.00 | 74 | 1019.8 |
| 20260906094005 | 15 | 238 | 4.8 | 6.4 | 0.00 | 0.00 | 0.00 | 73 | 1019.9 |
| 20260906093505 | 15 | 131 | 3.2 | 11.3 | 0.00 | 0.00 | 0.00 | 72 | 1019.9 |
| 20260906093006 | 15 | 131 | 6.4 | 11.3 | 0.00 | 0.00 | 0.00 | 72 | 1019.9 |
| 20260906091506 | 16 | 188 | 1.6 | 4.8 | 0.00 | 0.00 | 0.00 | 72 | 1019.7 |
| 20260906091502 | 16 | 188 | 1.6 | 4.8 | 0.00 | 0.00 | 0.00 | 72 | 1002.2 |
| 20260906090958 | 16 | 188 | 3.2 | 4.8 | 0.00 | 0.00 | 0.00 | 72 | 1019.5 |
| 20260906090506 | 16 | 188 | 1.6 | 6.4 | 0.00 | 0.00 | 0.00 | 73 | 1019.4 |
| 20260906090007 | 16 | 188 | 3.2 | 6.4 | 0.00 | 0.00 | 0.00 | 73 | 1019.4 |
| 20260906090003 | 16 | 188 | 3.2 | 6.4 | 0.00 | 0.00 | 0.00 | 73 | 1002.0 |
| 20260906085505 | 16 | 188 | 3.2 | 6.4 | 0.00 | 0.00 | 0.00 | 72 | 1019.5 |
| 20260906085006 | 16 | 188 | 4.8 | 6.4 | 0.00 | 0.00 | 0.00 | 70 | 1019.6 |
| 20260906084504 | 17 | 188 | 4.8 | 6.4 | 0.00 | 0.00 | 0.00 | 69 | 1019.5 |
| 20260906084006 | 17 | 188 | 3.2 | 6.4 | 0.00 | 0.00 | 0.00 | 67 | 1019.6 |
| 20260906083505 | 17 | 188 | 4.8 | 6.4 | 0.00 | 0.00 | 0.00 | 67 | 1019.7 |
| 20260906083003 | 17 | 188 | 3.2 | 6.4 | 0.00 | 0.00 | 0.00 | 65 | 1002.2 |
| 20260906082505 | 17 | 188 | 1.6 | 4.8 | 0.00 | 0.00 | 0.00 | 65 | 1019.6 |
| 20260906082005 | 17 | 188 | 0.0 | 8.0 | 0.00 | 0.00 | 0.00 | 64 | 1019.7 |
| 20260906081555 | 17 | 188 | 1.6 | 8.0 | 0.00 | 0.00 | 0.00 | 64 | 1002.2 |
| 20260906081508 | 17 | 188 | 1.6 | 8.0 | 0.00 | 0.00 | 0.00 | 64 | 1002.2 |
| 20260906080958 | 17 | 248 | 3.2 | 6.4 | 0.00 | 0.00 | 0.00 | 66 | 1019.8 |
| 20260906080505 | 16 | 248 | 4.8 | 6.4 | 0.00 | 0.00 | 0.00 | 68 | 1019.8 |
| 20260906080009 | 16 | 199 | 1.6 | 6.4 | 0.00 | 0.00 | 0.00 | 72 | 1002.1 |
| 20260906075505 | 16 | 199 | 3.2 | 9.7 | 0.00 | 0.00 | 0.00 | 74 | 1019.8 |
| 20260906075006 | 16 | 192 | 6.4 | 9.7 | 0.00 | 0.00 | 0.00 | 74 | 1019.8 |
| 20260906074506 | 16 | 165 | 3.2 | 8.0 | 0.00 | 0.00 | 0.00 | 74 | 1019.8 |
| 20260906074504 | 16 | 165 | 1.6 | 8.0 | 0.00 | 0.00 | 0.00 | 74 | 1002.2 |
| 20260906074005 | 16 | 165 | 3.2 | 4.8 | 0.00 | 0.00 | 0.00 | 72 | 1019.8 |
| 20260906073006 | 16 | 165 | 0.0 | 8.0 | 0.00 | 0.00 | 0.00 | 71 | 1019.9 |
| 20260906073003 | 16 | 165 | 0.0 | 8.0 | 0.00 | 0.00 | 0.00 | 71 | 1002.2 |
| 20260906072505 | 16 | 165 | 3.2 | 8.0 | 0.00 | 0.00 | 0.00 | 71 | 1019.9 |
| 20260906072006 | 16 | 165 | 3.2 | 8.0 | 0.00 | 0.00 | 0.00 | 70 | 1019.8 |
| 20260906071505 | 17 | 165 | 4.8 | 4.8 | 0.00 | 0.00 | 0.00 | 69 | 1019.8 |
| 20260906071503 | 17 | 165 | 3.2 | 4.8 | 0.00 | 0.00 | 0.00 | 69 | 1002.1 |
| 20260906071006 | 17 | 165 | 3.2 | 4.8 | 0.00 | 0.00 | 0.00 | 68 | 1019.8 |
| 20260906070505 | 18 | 165 | 0.0 | 4.8 | 0.00 | 0.00 | 0.00 | 65 | 1019.9 |
| 20260906070007 | 18 | 165 | 1.6 | 8.0 | 0.00 | 0.00 | 0.00 | 63 | 1019.9 |
| 20260906070003 | 18 | 165 | 0.0 | 8.0 | 0.00 | 0.00 | 0.00 | 63 | 1002.2 |
| 20260906065007 | 19 | 165 | 6.4 | 8.0 | 0.00 | 0.00 | 0.00 | 61 | 1020.0 |
| 20260906064506 | 19 | 212 | 3.2 | 4.8 | 0.00 | 0.00 | 0.00 | 63 | 1019.9 |
| 20260906064504 | 19 | 212 | 1.6 | 4.8 | 0.00 | 0.00 | 0.00 | 63 | 1002.2 |
| 20260906064005 | 19 | 212 | 1.6 | 4.8 | 0.00 | 0.00 | 0.00 | 62 | 1019.9 |
| 20260906063505 | 18 | 212 | 3.2 | 6.4 | 0.00 | 0.00 | 0.00 | 62 | 1019.9 |
| 20260906063005 | 19 | 212 | 1.6 | 8.0 | 0.00 | 0.00 | 0.00 | 64 | 1019.9 |
| 20260906063003 | 19 | 212 | 0.0 | 8.0 | 0.00 | 0.00 | 0.00 | 64 | 1002.1 |
| 20260906062505 | 19 | 313 | 4.8 | 8.0 | 0.00 | 0.00 | 0.00 | 63 | 1019.9 |
| 20260906062006 | 19 | 210 | 3.2 | 6.4 | 0.00 | 0.00 | 0.00 | 63 | 1019.8 |
| 20260906061505 | 19 | 210 | 3.2 | 6.4 | 0.00 | 0.00 | 0.00 | 64 | 1019.7 |
| 20260906061503 | 19 | 210 | 1.6 | 6.4 | 0.00 | 0.00 | 0.00 | 64 | 1001.8 |
| 20260906061006 | 19 | 210 | 3.2 | 11.3 | 0.00 | 0.00 | 0.00 | 64 | 1019.7 |
| 20260906060505 | 19 | 210 | 4.8 | 11.3 | 0.00 | 0.00 | 0.00 | 64 | 1019.7 |
| 20260906060007 | 19 | 290 | 4.8 | 6.4 | 0.00 | 0.00 | 0.00 | 64 | 1019.7 |
| 20260906060002 | 19 | 290 | 3.2 | 6.4 | 0.00 | 0.00 | 0.00 | 64 | 1001.7 |
| 20260906055505 | 19 | 290 | 3.2 | 6.4 | 0.00 | 0.00 | 0.00 | 64 | 1019.7 |
| 20260906054505 | 20 | 290 | 4.8 | 6.4 | 0.00 | 0.00 | 0.00 | 63 | 1019.9 |
| 20260906054007 | 20 | 290 | 3.2 | 6.4 | 0.00 | 0.00 | 0.00 | 62 | 1019.9 |
| 20260906053505 | 20 | 290 | 3.2 | 6.4 | 0.00 | 0.00 | 0.00 | 61 | 1019.9 |
| 20260906053009 | 21 | 290 | 3.2 | 6.4 | 0.00 | 0.00 | 0.00 | 60 | 1019.9 |
| 20260906053003 | 21 | 290 | 3.2 | 6.4 | 0.00 | 0.00 | 0.00 | 60 | 1001.8 |
| 20260906052506 | 21 | 290 | 0.0 | 6.4 | 0.00 | 0.00 | 0.00 | 59 | 1019.8 |
| 20260906052006 | 21 | 290 | 1.6 | 6.4 | 0.00 | 0.00 | 0.00 | 59 | 1019.8 |
| 20260906051503 | 21 | 290 | 3.2 | 6.4 | 0.00 | 0.00 | 0.00 | 59 | 1001.6 |
| 20260906051006 | 21 | 290 | 0.0 | 4.8 | 0.00 | 0.00 | 0.00 | 59 | 1019.8 |
| 20260906050506 | 22 | 290 | 1.6 | 11.3 | 0.00 | 0.00 | 0.00 | 58 | 1019.8 |
| 20260906050006 | 22 | 290 | 1.6 | 16.1 | 0.00 | 0.00 | 0.00 | 58 | 1019.9 |
| 20260906050002 | 22 | 290 | 1.6 | 16.1 | 0.00 | 0.00 | 0.00 | 58 | 1001.8 |
| 20260906045507 | 22 | 286 | 4.8 | 17.7 | 0.00 | 0.00 | 0.00 | 58 | 1019.9 |
| 20260906045006 | 21 | 300 | 11.3 | 17.7 | 0.00 | 0.00 | 0.00 | 59 | 1019.9 |
| 20260906044505 | 21 | 293 | 6.4 | 11.3 | 0.00 | 0.00 | 0.00 | 60 | 1019.9 |
| 20260906044503 | 21 | 293 | 4.8 | 11.3 | 0.00 | 0.00 | 0.00 | 60 | 1001.8 |
| 20260906044006 | 21 | 293 | 4.8 | 14.5 | 0.00 | 0.00 | 0.00 | 60 | 1020.0 |
| 20260906043504 | 21 | 302 | 4.8 | 14.5 | 0.00 | 0.00 | 0.00 | 59 | 1019.9 |
| 20260906043007 | 21 | 320 | 3.2 | 12.9 | 0.00 | 0.00 | 0.00 | 60 | 1019.8 |
| 20260906043004 | 21 | 320 | 3.2 | 12.9 | 0.00 | 0.00 | 0.00 | 60 | 1001.7 |
| 20260906042504 | 21 | 209 | 1.6 | 4.8 | 0.00 | 0.00 | 0.00 | 60 | 1019.8 |
| 20260906042006 | 21 | 209 | 1.6 | 4.8 | 0.00 | 0.00 | 0.00 | 60 | 1019.9 |
| 20260906041506 | 21 | 209 | 1.6 | 8.0 | 0.00 | 0.00 | 0.00 | 59 | 1019.9 |
| 20260906041006 | 22 | 209 | 1.6 | 9.7 | 0.00 | 0.00 | 0.00 | 59 | 1019.7 |
| 20260906040015 | 21 | 188 | 6.4 | 14.5 | 0.00 | 0.00 | 0.00 | 59 | 1001.6 |
| 20260906040008 | 21 | 188 | 8.0 | 14.5 | 0.00 | 0.00 | 0.00 | 59 | 1019.6 |
| 20260906035505 | 21 | 147 | 8.0 | 16.1 | 0.00 | 0.00 | 0.00 | 59 | 1019.7 |
| 20260906035006 | 21 | 234 | 8.0 | 20.9 | 0.00 | 0.00 | 0.00 | 59 | 1019.6 |
| 20260906034507 | 22 | 181 | 11.3 | 20.9 | 0.00 | 0.00 | 0.00 | 59 | 1001.7 |
| 20260906034007 | 22 | 192 | 11.3 | 19.3 | 0.00 | 0.00 | 0.00 | 59 | 1019.7 |
| 20260906033505 | 22 | 180 | 11.3 | 19.3 | 0.00 | 0.00 | 0.00 | 59 | 1019.7 |
| 20260906033010 | 22 | 167 | 12.9 | 17.7 | 0.00 | 0.00 | 0.00 | 59 | 1019.7 |
| 20260906033004 | 22 | 167 | 11.3 | 17.7 | 0.00 | 0.00 | 0.00 | 59 | 1001.8 |
| 20260906032505 | 21 | 187 | 12.9 | 17.7 | 0.00 | 0.00 | 0.00 | 59 | 1019.6 |
| 20260906032006 | 21 | 171 | 11.3 | 17.7 | 0.00 | 0.00 | 0.00 | 58 | 1019.5 |
| 20260906031504 | 21 | 180 | 11.3 | 17.7 | 0.00 | 0.00 | 0.00 | 58 | 1019.5 |
| 20260906031502 | 21 | 180 | 11.3 | 17.7 | 0.00 | 0.00 | 0.00 | 58 | 1001.8 |
| 20260906031007 | 22 | 162 | 11.3 | 17.7 | 0.00 | 0.00 | 0.00 | 57 | 1019.5 |
| 20260906030009 | 22 | 186 | 11.3 | 16.1 | 0.00 | 0.00 | 0.00 | 53 | 1001.7 |
| 20260906024601 | 22 | 166 | 11.3 | 25.7 | 0.00 | 0.00 | 0.00 | 51 | 1001.7 |
| 20260906024512 | 22 | 169 | 12.9 | 25.7 | 0.00 | 0.00 | 0.00 | 51 | 1001.7 |
| 20260906024505 | 22 | 169 | 14.5 | 25.7 | 0.00 | 0.00 | 0.00 | 51 | 1019.3 |
| 20260906024006 | 22 | 147 | 19.3 | 25.7 | 0.00 | 0.00 | 0.00 | 49 | 1019.2 |
| 20260906023505 | 23 | 154 | 16.1 | 38.6 | 0.00 | 0.00 | 0.00 | 48 | 1019.1 |
| 20260906023005 | 22 | 130 | 20.9 | 38.6 | 0.00 | 0.00 | 0.00 | 51 | 1001.5 |
| 20260906022505 | 22 | 202 | 1.6 | 4.8 | 0.00 | 0.00 | 0.00 | 40 | 1018.6 |
| 20260906021508 | 23 | 202 | 1.6 | 3.2 | 0.00 | 0.00 | 0.00 | 37 | 1000.9 |
| 20260906021505 | 23 | 202 | 3.2 | 3.2 | 0.00 | 0.00 | 0.00 | 37 | 1018.4 |
| 20260906021006 | 23 | 202 | 1.6 | 3.2 | 0.00 | 0.00 | 0.00 | 37 | 1018.4 |
| 20260906020505 | 23 | 202 | 0.0 | 0.0 | 0.00 | 0.00 | 0.00 | 38 | 1018.4 |
| 20260906020006 | 24 | 202 | 0.0 | 0.0 | 0.00 | 0.00 | 0.00 | 38 | 1018.3 |
| 20260906020004 | 24 | 202 | 0.0 | 0.0 | 0.00 | 0.00 | 0.00 | 38 | 1000.8 |
| 20260906015505 | 24 | 202 | 0.0 | 1.6 | 0.00 | 0.00 | 0.00 | 38 | 1018.3 |
| 20260906015009 | 25 | 202 | 0.0 | 1.6 | 0.00 | 0.00 | 0.00 | 34 | 1018.3 |
| 20260906014508 | 25 | 202 | 0.0 | 1.6 | 0.00 | 0.00 | 0.00 | 34 | 1000.8 |
| 20260906014505 | 25 | 202 | 0.0 | 1.6 | 0.00 | 0.00 | 0.00 | 34 | 1018.3 |
| 20260906014006 | 25 | 202 | 0.0 | 0.0 | 0.00 | 0.00 | 0.00 | 34 | 1018.3 |
| 20260906013105 | 25 | 202 | 0.0 | 1.6 | 0.00 | 0.00 | 0.00 | 33 | 1000.8 |
| 20260906012959 | 25 | 202 | 0.0 | 1.6 | 0.00 | 0.00 | 0.00 | 33 | 1018.3 |
| 20260906012505 | 25 | 202 | 0.0 | 6.4 | 0.00 | 0.00 | 0.00 | 34 | 1018.3 |
| 20260906012006 | 26 | 202 | 1.6 | 6.4 | 0.00 | 0.00 | 0.00 | 32 | 1018.3 |
| 20260906011505 | 26 | 161 | 3.2 | 9.7 | 0.00 | 0.00 | 0.00 | 31 | 1000.8 |
| 20260906011007 | 26 | 161 | 6.4 | 9.7 | 0.00 | 0.00 | 0.00 | 32 | 1018.2 |
| 20260906010505 | 26 | 161 | 3.2 | 4.8 | 0.00 | 0.00 | 0.00 | 34 | 1018.2 |
| 20260906010007 | 26 | 161 | 1.6 | 4.8 | 0.00 | 0.00 | 0.00 | 34 | 1018.4 |
| 20260906010004 | 26 | 161 | 1.6 | 4.8 | 0.00 | 0.00 | 0.00 | 34 | 1000.9 |
| 20260906005505 | 26 | 161 | 3.2 | 4.8 | 0.00 | 0.00 | 0.00 | 34 | 1018.5 |
| 20260906004505 | 26 | 161 | 3.2 | 8.0 | 0.00 | 0.00 | 0.00 | 31 | 1018.5 |
| 20260906004007 | 26 | 161 | 4.8 | 8.0 | 0.00 | 0.00 | 0.00 | 31 | 1018.5 |
| 20260906003505 | 26 | 161 | 6.4 | 9.7 | 0.00 | 0.00 | 0.00 | 31 | 1018.5 |
| 20260906003006 | 26 | 161 | 6.4 | 9.7 | 0.00 | 0.00 | 0.00 | 30 | 1018.5 |
| 20260906003003 | 26 | 161 | 4.8 | 9.7 | 0.00 | 0.00 | 0.00 | 30 | 1001.1 |
| 20260906002505 | 27 | 161 | 6.4 | 11.3 | 0.00 | 0.00 | 0.00 | 29 | 1018.4 |
| 20260906002008 | 27 | 161 | 6.4 | 11.3 | 0.00 | 0.00 | 0.00 | 29 | 1018.4 |
| 20260906001506 | 27 | 161 | 8.0 | 11.3 | 0.00 | 0.00 | 0.00 | 28 | 1018.3 |
| 20260906001503 | 27 | 161 | 6.4 | 11.3 | 0.00 | 0.00 | 0.00 | 28 | 1000.9 |
| 20260906001007 | 27 | 167 | 9.7 | 11.3 | 0.00 | 0.00 | 0.00 | 27 | 1018.4 |
| 20260906000008 | 28 | 164 | 8.0 | 12.9 | 0.00 | 0.00 | 0.00 | 27 | 1018.2 |
| 20260906000004 | 28 | 164 | 8.0 | 12.9 | 0.00 | 0.00 | 0.00 | 27 | 1000.7 |
| 20260905235507 | 28 | 169 | 6.4 | 11.3 | 0.00 | 0.00 | 0.00 | 27 | 1018.2 |
| 20260905235006 | 28 | 163 | 8.0 | 11.3 | 0.00 | 0.00 | 0.00 | 27 | 1018.2 |
| 20260905234506 | 28 | 168 | 4.8 | 9.7 | 0.00 | 0.00 | 0.00 | 27 | 1018.1 |
| 20260905234504 | 28 | 168 | 4.8 | 9.7 | 0.00 | 0.00 | 0.00 | 27 | 1000.6 |
| 20260905234006 | 28 | 194 | 6.4 | 12.9 | 0.00 | 0.00 | 0.00 | 26 | 1018.2 |
| 20260905233506 | 29 | 153 | 8.0 | 16.1 | 0.00 | 0.00 | 0.00 | 25 | 1018.0 |
| 20260905233006 | 28 | 157 | 8.0 | 12.9 | 0.00 | 0.00 | 0.00 | 25 | 1018.1 |
| 20260905233003 | 28 | 157 | 8.0 | 12.9 | 0.00 | 0.00 | 0.00 | 25 | 1000.6 |
| 20260905232505 | 28 | 165 | 8.0 | 12.9 | 0.00 | 0.00 | 0.00 | 27 | 1018.0 |
| 20260905232001 | 28 | 144 | 6.4 | 12.9 | 0.00 | 0.00 | 0.00 | 26 | 1018.1 |
| 20260905231505 | 28 | 163 | 9.7 | 16.1 | 0.00 | 0.00 | 0.00 | 27 | 1018.1 |
| 20260905231006 | 28 | 165 | 9.7 | 16.1 | 0.00 | 0.00 | 0.00 | 28 | 1018.1 |
| 20260905230110 | 28 | 163 | 6.4 | 16.1 | 0.00 | 0.00 | 0.00 | 27 | 1000.7 |
| 20260905225505 | 28 | 188 | 8.0 | 16.1 | 0.00 | 0.00 | 0.00 | 27 | 1018.2 |
| 20260905224505 | 28 | 167 | 11.3 | 17.7 | 0.00 | 0.00 | 0.00 | 27 | 1000.7 |
| 20260905224006 | 28 | 171 | 8.0 | 11.3 | 0.00 | 0.00 | 0.00 | 27 | 1018.2 |
| 20260905223505 | 28 | 153 | 8.0 | 12.9 | 0.00 | 0.00 | 0.00 | 26 | 1018.1 |
| 20260905223008 | 28 | 149 | 6.4 | 16.1 | 0.00 | 0.00 | 0.00 | 25 | 1018.1 |
| 20260905223004 | 28 | 149 | 6.4 | 16.1 | 0.00 | 0.00 | 0.00 | 25 | 1000.6 |
| 20260905222006 | 29 | 161 | 12.9 | 19.3 | 0.00 | 0.00 | 0.00 | 25 | 1018.2 |
| 20260905221506 | 29 | 151 | 12.9 | 17.7 | 0.00 | 0.00 | 0.00 | 26 | 1018.2 |
| 20260905221504 | 29 | 151 | 11.3 | 17.7 | 0.00 | 0.00 | 0.00 | 26 | 1000.7 |
| 20260905221005 | 28 | 125 | 14.5 | 17.7 | 0.00 | 0.00 | 0.00 | 26 | 1018.2 |
| 20260905220458 | 28 | 108 | 11.3 | 16.1 | 0.00 | 0.00 | 0.00 | 25 | 1018.2 |
| 20260905220004 | 28 | 147 | 8.0 | 12.9 | 0.00 | 0.00 | 0.00 | 26 | 1000.8 |
| 20260905215505 | 28 | 117 | 3.2 | 6.4 | 0.00 | 0.00 | 0.00 | 26 | 1018.2 |
| 20260905214508 | 28 | 150 | 3.2 | 8.0 | 0.00 | 0.00 | 0.00 | 24 | 1018.3 |
| 20260905214503 | 28 | 150 | 3.2 | 8.0 | 0.00 | 0.00 | 0.00 | 24 | 1000.8 |
| 20260905213007 | 28 | 129 | 9.7 | 16.1 | 0.00 | 0.00 | 0.00 | 25 | 1018.4 |
| 20260905213003 | 28 | 129 | 9.7 | 16.1 | 0.00 | 0.00 | 0.00 | 25 | 1000.9 |
| 20260905212505 | 28 | 113 | 8.0 | 12.9 | 0.00 | 0.00 | 0.00 | 26 | 1018.3 |
| 20260905212006 | 28 | 93 | 1.6 | 9.7 | 0.00 | 0.00 | 0.00 | 25 | 1018.4 |
| 20260905211603 | 28 | 86 | 6.4 | 9.7 | 0.00 | 0.00 | 0.00 | 25 | 1001.0 |
| 20260905211458 | 28 | 71 | 4.8 | 12.9 | 0.00 | 0.00 | 0.00 | 25 | 1018.5 |
| 20260905211005 | 28 | 68 | 3.2 | 16.1 | 0.00 | 0.00 | 0.00 | 24 | 1018.5 |
| 20260905210506 | 28 | 85 | 9.7 | 16.1 | 0.00 | 0.00 | 0.00 | 24 | 1018.6 |
| 20260905210006 | 28 | 106 | 9.7 | 16.1 | 0.00 | 0.00 | 0.00 | 24 | 1018.6 |
| 20260905210004 | 28 | 106 | 8.0 | 16.1 | 0.00 | 0.00 | 0.00 | 24 | 1001.1 |
| 20260905205006 | 29 | 346 | 8.0 | 20.9 | 0.00 | 0.00 | 0.00 | 24 | 1018.7 |
| 20260905204504 | 30 | 88 | 6.4 | 20.9 | 0.00 | 0.00 | 0.00 | 24 | 1001.3 |
| 20260905204006 | 30 | 45 | 6.4 | 19.3 | 0.00 | 0.00 | 0.00 | 24 | 1018.7 |
| 20260905203505 | 29 | 57 | 11.3 | 19.3 | 0.00 | 0.00 | 0.00 | 25 | 1018.9 |
| 20260905203004 | 29 | 101 | 6.4 | 22.5 | 0.00 | 0.00 | 0.00 | 24 | 1001.5 |
| 20260905202506 | 30 | 59 | 16.1 | 22.5 | 0.00 | 0.00 | 0.00 | 24 | 1019.0 |
| 20260905202006 | 30 | 36 | 4.8 | 22.5 | 0.00 | 0.00 | 0.00 | 26 | 1019.0 |
| 20260905201505 | 30 | 73 | 6.4 | 17.7 | 0.00 | 0.00 | 0.00 | 24 | 1019.1 |
| 20260905201503 | 30 | 73 | 6.4 | 17.7 | 0.00 | 0.00 | 0.00 | 24 | 1001.7 |
| 20260905201009 | 30 | 59 | 6.4 | 17.7 | 0.00 | 0.00 | 0.00 | 25 | 1019.1 |
| 20260905200505 | 29 | 355 | 6.4 | 14.5 | 0.00 | 0.00 | 0.00 | 25 | 1019.2 |
| 20260905200007 | 29 | 48 | 6.4 | 20.9 | 0.00 | 0.00 | 0.00 | 24 | 1001.8 |
| 20260905195505 | 30 | 67 | 14.5 | 20.9 | 0.00 | 0.00 | 0.00 | 24 | 1019.4 |
| 20260905195006 | 30 | 39 | 9.7 | 19.3 | 0.00 | 0.00 | 0.00 | 24 | 1019.4 |
| 20260905194507 | 30 | 355 | 6.4 | 19.3 | 0.00 | 0.00 | 0.00 | 25 | 1019.4 |
| 20260905194504 | 30 | 355 | 6.4 | 19.3 | 0.00 | 0.00 | 0.00 | 25 | 1002.0 |
| 20260905194005 | 30 | 322 | 6.4 | 17.7 | 0.00 | 0.00 | 0.00 | 23 | 1019.4 |
| 20260905193506 | 30 | 330 | 8.0 | 20.9 | 0.00 | 0.00 | 0.00 | 24 | 1019.5 |
| 20260905193006 | 30 | 333 | 9.7 | 20.9 | 0.00 | 0.00 | 0.00 | 25 | 1019.6 |
| 20260905193004 | 30 | 333 | 8.0 | 20.9 | 0.00 | 0.00 | 0.00 | 25 | 1002.2 |
| 20260905192506 | 30 | 331 | 9.7 | 22.5 | 0.00 | 0.00 | 0.00 | 24 | 1019.5 |
| 20260905192006 | 29 | 341 | 6.4 | 24.1 | 0.00 | 0.00 | 0.00 | 26 | 1019.6 |
| 20260905191503 | 28 | 348 | 11.3 | 24.1 | 0.00 | 0.00 | 0.00 | 25 | 1002.1 |
| 20260905191006 | 28 | 29 | 16.1 | 24.1 | 0.00 | 0.00 | 0.00 | 24 | 1019.7 |
| 20260905190008 | 29 | 350 | 11.3 | 22.5 | 0.00 | 0.00 | 0.00 | 25 | 1019.7 |
| 20260905190004 | 29 | 350 | 11.3 | 22.5 | 0.00 | 0.00 | 0.00 | 25 | 1002.3 |
| 20260905185506 | 28 | 355 | 8.0 | 24.1 | 0.00 | 0.00 | 0.00 | 26 | 1019.8 |
| 20260905184505 | 28 | 22 | 11.3 | 22.5 | 0.00 | 0.00 | 0.00 | 25 | 1002.5 |
| 20260905184007 | 28 | 37 | 14.5 | 24.1 | 0.00 | 0.00 | 0.00 | 24 | 1019.9 |
| 20260905183506 | 28 | 18 | 17.7 | 25.7 | 0.00 | 0.00 | 0.00 | 26 | 1019.9 |
| 20260905183007 | 28 | 26 | 12.9 | 25.7 | 0.00 | 0.00 | 0.00 | 25 | 1020.0 |
| 20260905183003 | 28 | 31 | 11.3 | 25.7 | 0.00 | 0.00 | 0.00 | 25 | 1002.6 |
| 20260905182505 | 28 | 5 | 4.8 | 20.9 | 0.00 | 0.00 | 0.00 | 26 | 1020.1 |
| 20260905182006 | 28 | 355 | 9.7 | 27.4 | 0.00 | 0.00 | 0.00 | 26 | 1020.2 |
| 20260905181505 | 27 | 5 | 11.3 | 27.4 | 0.00 | 0.00 | 0.00 | 26 | 1020.1 |
| 20260905181503 | 27 | 5 | 9.7 | 27.4 | 0.00 | 0.00 | 0.00 | 26 | 1002.7 |
| 20260905181006 | 27 | 49 | 17.7 | 30.6 | 0.00 | 0.00 | 0.00 | 25 | 1020.2 |
| 20260905180505 | 27 | 29 | 16.1 | 30.6 | 0.00 | 0.00 | 0.00 | 25 | 1020.2 |
| 20260905180004 | 28 | 17 | 16.1 | 29.0 | 0.00 | 0.00 | 0.00 | 26 | 1002.8 |
| 20260905175505 | 28 | 44 | 17.7 | 29.0 | 0.00 | 0.00 | 0.00 | 26 | 1020.3 |
| 20260905174503 | 27 | 5 | 14.5 | 25.7 | 0.00 | 0.00 | 0.00 | 27 | 1002.8 |
| 20260905174006 | 27 | 11 | 9.7 | 30.6 | 0.00 | 0.00 | 0.00 | 26 | 1020.3 |
| 20260905173505 | 27 | 21 | 14.5 | 30.6 | 0.00 | 0.00 | 0.00 | 27 | 1020.3 |
| 20260905173007 | 27 | 28 | 16.1 | 27.4 | 0.00 | 0.00 | 0.00 | 27 | 1020.4 |
| 20260905173005 | 27 | 28 | 16.1 | 27.4 | 0.00 | 0.00 | 0.00 | 27 | 1003.0 |
| 20260905172505 | 27 | 55 | 16.1 | 27.4 | 0.00 | 0.00 | 0.00 | 27 | 1020.4 |
| 20260905172007 | 27 | 336 | 11.3 | 27.4 | 0.00 | 0.00 | 0.00 | 27 | 1020.4 |
| 20260905171505 | 27 | 22 | 16.1 | 27.4 | 0.00 | 0.00 | 0.00 | 28 | 1020.5 |
| 20260905171006 | 27 | 360 | 8.0 | 24.1 | 0.00 | 0.00 | 0.00 | 29 | 1020.5 |
| 20260905170505 | 27 | 360 | 12.9 | 24.1 | 0.00 | 0.00 | 0.00 | 28 | 1020.5 |
| 20260905170007 | 27 | 10 | 6.4 | 19.3 | 0.00 | 0.00 | 0.00 | 30 | 1020.5 |
| 20260905170005 | 27 | 10 | 6.4 | 19.3 | 0.00 | 0.00 | 0.00 | 30 | 1003.0 |
| 20260905165506 | 27 | 336 | 9.7 | 24.1 | 0.00 | 0.00 | 0.00 | 30 | 1020.4 |
| 20260905164505 | 27 | 20 | 12.9 | 19.3 | 0.00 | 0.00 | 0.00 | 28 | 1020.5 |
| 20260905163505 | 27 | 25 | 6.4 | 20.9 | 0.00 | 0.00 | 0.00 | 31 | 1020.5 |
| 20260905163007 | 26 | 14 | 11.3 | 19.3 | 0.00 | 0.00 | 0.00 | 31 | 1020.4 |
| 20260905163004 | 26 | 14 | 11.3 | 19.3 | 0.00 | 0.00 | 0.00 | 31 | 1003.0 |
| 20260905162506 | 26 | 19 | 6.4 | 19.3 | 0.00 | 0.00 | 0.00 | 31 | 1020.4 |
| 20260905162007 | 26 | 27 | 11.3 | 20.9 | 0.00 | 0.00 | 0.00 | 31 | 1020.3 |
| 20260905161505 | 26 | 22 | 14.5 | 20.9 | 0.00 | 0.00 | 0.00 | 30 | 1020.3 |
| 20260905161503 | 26 | 22 | 12.9 | 20.9 | 0.00 | 0.00 | 0.00 | 30 | 1002.8 |
| 20260905161007 | 26 | 36 | 11.3 | 19.3 | 0.00 | 0.00 | 0.00 | 29 | 1020.2 |
| 20260905160007 | 26 | 327 | 8.0 | 17.7 | 0.00 | 0.00 | 0.00 | 31 | 1020.1 |
| 20260905160004 | 26 | 327 | 8.0 | 17.7 | 0.00 | 0.00 | 0.00 | 31 | 1002.6 |
| 20260905155506 | 26 | 5 | 8.0 | 17.7 | 0.00 | 0.00 | 0.00 | 33 | 1020.1 |
| 20260905155007 | 25 | 20 | 4.8 | 16.1 | 0.00 | 0.00 | 0.00 | 34 | 1020.1 |
| 20260905154506 | 25 | 314 | 6.4 | 16.1 | 0.00 | 0.00 | 0.00 | 35 | 1020.1 |
| 20260905154503 | 25 | 314 | 4.8 | 16.1 | 0.00 | 0.00 | 0.00 | 35 | 1002.6 |
| 20260905154007 | 25 | 309 | 9.7 | 16.1 | 0.00 | 0.00 | 0.00 | 35 | 1020.1 |
| 20260905153506 | 24 | 319 | 6.4 | 14.5 | 0.00 | 0.00 | 0.00 | 37 | 1020.1 |
| 20260905153008 | 24 | 318 | 4.8 | 14.5 | 0.00 | 0.00 | 0.00 | 38 | 1020.1 |
| 20260905153004 | 24 | 318 | 4.8 | 14.5 | 0.00 | 0.00 | 0.00 | 38 | 1002.6 |
| 20260905152505 | 23 | 254 | 9.7 | 16.1 | 0.00 | 0.00 | 0.00 | 38 | 1020.0 |
| 20260905152006 | 23 | 304 | 9.7 | 16.1 | 0.00 | 0.00 | 0.00 | 40 | 1020.0 |
| 20260905151505 | 23 | 313 | 8.0 | 12.9 | 0.00 | 0.00 | 0.00 | 40 | 1020.0 |
| 20260905151503 | 23 | 313 | 6.4 | 12.9 | 0.00 | 0.00 | 0.00 | 40 | 1002.5 |